星链-31752 (STARLINK-31752 )

导读

STARLINK-31752是美国太空探索技术公司Starlink星链互联网星座的卫星,于2024年4月7日发射升空,归属美国所有。该卫星是星链项目批量组网部署的成员之一,旨在为全球范围内用户提供低延迟、高速率的卫星互联网接入服务,进一步完善星链星座的全球覆盖能力,推进低轨卫星互联网的组网进程。

基本信息
目录编号:
59428
目录名称:
STARLINK-31752
国际标识:
2024-065H
轨道中心:
EARTH
卫星名称:
星链-31752
卫星全名:
星链-31752 (STARLINK-31752 )
卫星状态:
已陨落 最后检测时间 2024-09-25
发射日期:
2024-04-07 UTC
国别 :
美国 (US)
星等 :
--
该卫星已列入 空间交会检测服务 Space Conjunction Data Service (SCDS) ,当前飞行风险评估等级: 无高风险
轨道信息
数据来源 国际轨道数据
星历时间: 2024-09-25T20:16:31+0800
轨道信息已过期717天
半长轴: 6584.559km
偏心率: 0.0006614
轨道倾角: 53.139°
近地点辐角 227.007°
升交点赤经 204.525°
平近点角 274.474°
近地点: 202.068km
远地点: 210.78km
周期: 88.624分钟
每日圈数: 16.248483
详细信息
固有亮度:
5
最大亮度:
1.5
卫星平台:
Starlink v2.0 mini
覆盖范围:
全球
运营商:
太空探索技术公司
运营商所在国:
美国
制造商(研发单位):
太空探索技术公司
制造商所在国:
美国
使用方式:
暂无
卫星简介
星链(Starlink)计划是由太空探索技术公司(SpaceX)提出的一个巨型低轨卫星互联网星座项目,计划在2019年至2024年间在太空搭建由约1.2万颗卫星组成的“星链”网络,其中1584颗将部署在地球上空550千米处的近地轨道,并从2020年开始工作。该卫星仍在工作。
与全量物体交会距离演化趋势
与全量物体交会风险概率演化趋势